Regional Weather Roundup
Issued by NWS

Home | Current Version | Previous Version | Text Only | Print | Product List | Glossary Off
Versions: 1 2 3 4 5 6 7 8 9 10 11 12 13 14 15 16 17 18 19 20 21 22 23 24 25 26 27 28 29 30 31 32 33 34 35 36 37 38 39 40 41 42 43 44 45 46 47 48 49 50

000
ASUS43 KLSX 241107
RWRMO

WEATHER SUMMARY FOR MISSOURI
NATIONAL WEATHER SERVICE SPRINGFIELD MO
500 AM CST FRI NOV 24 2017

NOTE: "FAIR" INDICATES FEW OR NO CLOUDS BELOW 12,000 FEET WITH NO
       SIGNIFICANT WEATHER AND/OR OBSTRUCTIONS TO VISIBILITY.
       CURRENT SKY AND/OR WEATHER CONDITIONS ARE NOT AVAILABLE FOR
       CHILLICOTHE AND FARMINGTON.

MOZ001>031-035>038-043-044-053-054-241200-
...NORTHERN AND WESTERN MISSOURI...

CITY           SKY/WX    TMP DP  RH WIND       PRES   REMARKS
KANSAS CTY INT PTCLDY    52  34  50 S13       29.74F
KANSAS C DTWN  PTCLDY    53  33  46 S10       29.75F
LEE`S SUMMIT   CLEAR     48  33  56 S13       29.77F
ST JOSEPH      CLEAR     49  36  61 SW10      29.71F
CHILLICOTHE      N/A     49  34  56 S8        29.75F
KIRKSVILLE     CLEAR     46  35  65 S8        29.76F

$$
MOZ066>068-077>081-088>096-101>105-241200-
...SOUTHWEST MISSOURI...

CITY           SKY/WX    TMP DP  RH WIND       PRES   REMARKS
SPRINGFIELD    CLEAR     43  31  62 S9        29.88F
JOPLIN         CLEAR     50  31  48 S9        29.88F
BRANSON        CLEAR     50  28  43 SW5       29.92F

$$
MOZ032>034-039>042-045>050-055>058-069>072-241200-
...CENTRAL MISSOURI...

CITY           SKY/WX    TMP DP  RH WIND       PRES   REMARKS
COLUMBIA       PTCLDY    41  34  76 S7        29.83F
JEFFERSON CITY PTCLDY    39  32  76 E5        29.85F
ROLLA          PTCLDY    46  32  58 S13       29.87F
SEDALIA        PTCLDY    50  34  54 S13       29.83F
WHITEMAN AFB   CLEAR     42  32  67 S12       29.77F
WARRENSBURG    CLEAR     45  32  61 S8        29.80F
OSAGE BEACH    CLOUDY    40  32  73 CALM      29.87F

$$
MOZ051-052-059>065-241200-
...EAST CENTRAL MISSOURI...

CITY           SKY/WX    TMP DP  RH WIND       PRES   REMARKS
ST LOUIS INTL  MOCLDY    42  31  64 SW3       29.87F
SPIRIT OF STL  PTCLDY    32  30  92 CALM      29.86F
ST CHARLES     PTCLDY    32  30  92 E3        29.87F

$$
MOZ072>076-082>087-097>100-106>115-241200-
...SOUTH CENTRAL AND SOUTHEAST MISSOURI...

CITY           SKY/WX    TMP DP  RH WIND       PRES   REMARKS
CAPE GIRARDEAU CLOUDY    32  26  78 CALM      29.95S
FARMINGTON     CLOUDY    31  27  85 CALM      29.91F
POPLAR BLUFF   PTCLDY    29  27  92 CALM      29.95S
WEST PLAINS    CLOUDY    44  29  55 W8        29.93S

$$



USA.gov is the U.S. government's official web portal to all federal, state and local government web resources and services.